2004 XD51 |
ephemeris |
date |
magn |
radius |
delta |
ra |
dec |
elong |
phase |
Today | 18 Oct 2025 | 27.4 | 0.978 AU | 1.248 AU | 10h27m | +11°32' | 50.1° | 51.4° |
2004 XD51 - 2025-10-18
astro.vanbuitenen.nl
The interactive orbit chart above shows the body's path through the solar system and its position at the given date.
Green and blue lines are shown perpendicular to the ecliptic plane: Green if the path is above the ecliptic plane, blue if it is below.
(Left-click and drag to rotate the view; Right-click and drag to move the view; Use scroll wheel to zoom in our out.)
The orbital elements of 2004 XD51 are:
e (Eccentricity) : 0.2411062
a (Semimajor axis) : 1.2435484
i (Inclination) : 6.79621
Ω (Longitude of ascending node) : 83.50348
ω (Argument of perihelion) : 54.32692
M (Mean anomaly) : 220.90696
Epoch : 2025 May 05
L (Longitude of perihelion) : 137.63879
B (Latitude of perihelion) : 5.51653
P (Orbital period in years) : 1.39
The light curve chart below shows the estimated development of the minor planet's magnitude.
The all-sky chart below shows the path of the minor planet over the same period as the light curve. The current position is marked yellow.
The following chart shows the path of the minor planet in the next few days. The field of view is optimized for (~10x50) binoculars and finderscopes.
Ephemerides:
Date Time RA (2000) DEC (2000) delta radius elong phase PA magn
2025-10-18 00:00 UT 10 27 51.6 +11 32 33 1.248 0.978 50.1 51.4 293 27.4
2025-10-18 20:36 UT 10 31 37.9 +11 15 47 1.249 0.976 50.0 51.4 293 27.4
2025-10-19 00:00 UT 10 32 15.3 +11 12 60 1.249 0.975 50.0 51.4 293 27.4
2025-10-20 00:00 UT 10 36 38.4 +10 53 12 1.249 0.973 49.8 51.4 293 27.4
2025-10-21 00:00 UT 10 41 01.1 +10 33 09 1.249 0.971 49.7 51.4 294 27.4
2025-10-22 00:00 UT 10 45 23.2 +10 12 53 1.249 0.969 49.6 51.4 294 27.4
2025-10-23 00:00 UT 10 49 44.8 +09 52 23 1.250 0.967 49.5 51.4 294 27.4
2025-10-24 00:00 UT 10 54 05.8 +09 31 40 1.250 0.966 49.3 51.4 294 27.4
2025-10-25 00:00 UT 10 58 26.2 +09 10 46 1.251 0.964 49.2 51.4 295 27.4
Terminology:
delta: distance between minor planet and earth in AU
radius: distance between minor planet and sun in AU
magn: magnitude (brightness) estimate
ra: right ascension in hours (24h = 360deg)
dec: declination in degrees
elong: elongation in degrees (angle sun-earth-minor planet)
phase: phase angle in degrees (angle sun-minor planet-earth)
AU: Astronomical Unit (mean distance between earth and sun: 149597870.7 km
Orbital elements provided by the MPC (Minor Planet Center).
Calculations by a modified version of AAPlus, a C# implementation of the AA+ project by PJ Naughter from the algorithms presented in the book "Astronomical Algorithms" by Jean Meeus.
NGC2000 dso catalog and star labels from VizieR as provided by the Strasbourg astronomical Data Center.
Tycho2 catalog from the ESO archive.